Location: Unspecified
(33.3030°N, 0.0000°E)
Time: 05:01:40
(UTC+00:00)

Meteor 1-14 Rocket - Visible Passes

Search period start: 04 April 2026 00:00
Search period end: 14 April 2026 00:00
Orbit: 833 x 917 km, 81.3° (Epoch: 29 March)

Date Brightness Start Highest point End Pass type
(mag) Time Alt. Az. Time Alt. Az. Time Alt. Az.
4 Apr 4.4 04:37:02 10° N 04:42:55 80° E 04:48:39 10° S visible
5 Apr 4.3 04:32:18 10° N 04:38:11 85° E 04:43:54 10° S visible
6 Apr 4.3 04:27:34 10° N 04:33:26 90° N 04:39:09 10° S visible
7 Apr 4.2 04:22:50 10° N 04:28:42 85° W 04:34:23 10° S visible
8 Apr 7.3 02:38:28 10° NE 02:39:49 11° ENE 02:41:11 10° E visible
8 Apr 4.2 04:18:07 10° N 04:23:57 80° W 04:29:37 10° S visible
9 Apr 7.2 02:33:12 10° NE 02:35:08 12° ENE 02:37:03 10° E visible
9 Apr 4.2 04:13:23 10° NNW 04:19:12 75° W 04:24:51 10° S visible
10 Apr 7.1 02:28:04 10° NE 02:30:26 12° ENE 02:32:47 10° E visible
10 Apr 4.2 04:08:40 10° NNW 04:14:27 70° W 04:20:04 10° S visible
11 Apr 7.0 02:23:01 10° NE 02:25:44 13° ENE 02:28:26 10° E visible
11 Apr 4.2 04:03:57 10° NNW 04:09:42 65° W 04:15:16 10° S visible
12 Apr 7.0 02:18:01 10° NE 02:21:02 14° ENE 02:24:01 10° ESE visible
12 Apr 4.2 03:59:15 10° NNW 04:04:56 61° W 04:10:28 10° S visible
13 Apr 6.9 02:13:04 10° NE 02:16:20 15° ENE 02:19:34 10° ESE visible
13 Apr 4.3 03:54:32 10° NNW 04:00:10 57° W 04:05:40 10° S visible
